Location: Unspecified
(0.0000°N, 0.0000°E)
Time: 19:32:42
(UTC+00:00)

STARLINK-31884 - Pass Details

Date: 16 December 2025
Orbit: 482 x 484 km, 43.0° (Epoch: 22 January)

Event Time Altitude Azimuth Distance (km) Brightness Sun altitude
Exits shadow 04:31:49 25° 225° (SW) 1,000 4.7 -19.2°
Maximum altitude 04:33:54 89° 303° (WNW) 482 3.2 -18.7°
Drops below altitude 10° 04:37:39 10° 44° (NE) 1,644 6.3 -17.8°
Sets 04:39:49 0° 44° (NE) 2,520 7.3 -17.3°
